| time (UTC) | temp C | wind direction | speed KPH | gust KPH | rain 1hr cm | rain 24hr cm | rain mn cm | humidity % | barometer mb |
| 20260903205521 | 23 | 300 | 4.8 | 16.1 | 0.00 | 0.41 | 0.00 | 56 | 1011.1 |
| 20260903205021 | 23 | 309 | 6.4 | 20.9 | 0.00 | 0.41 | 0.00 | 56 | 1011.1 |
| 20260903204522 | 24 | 281 | 6.4 | 27.4 | 0.00 | 0.41 | 0.00 | 55 | 1011.2 |
| 20260903204021 | 24 | 292 | 14.5 | 29.0 | 0.00 | 0.41 | 0.00 | 54 | 1011.2 |
| 20260903203520 | 25 | 269 | 11.3 | 19.3 | 0.00 | 0.41 | 0.00 | 56 | 1011.2 |
| 20260903203019 | 24 | 307 | 4.8 | 14.5 | 0.00 | 0.41 | 0.00 | 57 | 1011.3 |
| 20260903202519 | 24 | 277 | 6.4 | 19.3 | 0.00 | 0.41 | 0.00 | 57 | 1011.2 |
| 20260903202019 | 24 | 311 | 4.8 | 19.3 | 0.00 | 0.41 | 0.00 | 56 | 1011.2 |
| 20260903201518 | 24 | 296 | 8.0 | 16.1 | 0.00 | 0.41 | 0.00 | 56 | 1011.1 |
| 20260903201020 | 24 | 315 | 6.4 | 14.5 | 0.00 | 0.41 | 0.00 | 58 | 1011.0 |
| 20260903200517 | 24 | 284 | 8.0 | 17.7 | 0.00 | 0.41 | 0.00 | 57 | 1011.2 |
| 20260903200018 | 24 | 308 | 6.4 | 22.5 | 0.00 | 0.41 | 0.00 | 56 | 1011.2 |
| 20260903195517 | 24 | 303 | 11.3 | 22.5 | 0.00 | 0.41 | 0.00 | 57 | 1011.2 |
| 20260903195016 | 24 | 275 | 9.7 | 19.3 | 0.00 | 0.41 | 0.00 | 58 | 1011.2 |
| 20260903194516 | 24 | 312 | 8.0 | 24.1 | 0.00 | 0.41 | 0.00 | 57 | 1011.3 |
| 20260903194015 | 24 | 297 | 11.3 | 24.1 | 0.00 | 0.41 | 0.00 | 55 | 1011.2 |
| 20260903193515 | 24 | 306 | 8.0 | 19.3 | 0.00 | 0.41 | 0.00 | 57 | 1011.2 |
| 20260903193014 | 24 | 306 | 8.0 | 22.5 | 0.00 | 0.41 | 0.00 | 61 | 1011.3 |
| 20260903192513 | 24 | 296 | 6.4 | 22.5 | 0.00 | 0.41 | 0.00 | 58 | 1011.4 |
| 20260903192012 | 24 | 316 | 9.7 | 19.3 | 0.00 | 0.41 | 0.00 | 62 | 1011.4 |
| 20260903191514 | 24 | 298 | 11.3 | 19.3 | 0.00 | 0.41 | 0.00 | 62 | 1011.4 |
| 20260903191012 | 24 | 282 | 6.4 | 22.5 | 0.00 | 0.41 | 0.00 | 63 | 1011.4 |
| 20260903190512 | 24 | 303 | 14.5 | 22.5 | 0.00 | 0.41 | 0.00 | 61 | 1011.5 |
| 20260903190011 | 24 | 290 | 8.0 | 16.1 | 0.00 | 0.41 | 0.00 | 66 | 1011.5 |
| 20260903185510 | 24 | 290 | 8.0 | 20.9 | 0.00 | 0.41 | 0.00 | 67 | 1011.5 |
| 20260903185010 | 24 | 292 | 11.3 | 20.9 | 0.00 | 0.41 | 0.00 | 68 | 1011.2 |
| 20260903184509 | 23 | 311 | 11.3 | 22.5 | 0.00 | 0.41 | 0.00 | 66 | 1011.4 |
| 20260903184008 | 23 | 276 | 4.8 | 22.5 | 0.00 | 0.41 | 0.00 | 68 | 1011.5 |
| 20260903183510 | 23 | 301 | 12.9 | 20.9 | 0.00 | 0.41 | 0.00 | 66 | 1011.6 |
| 20260903183008 | 23 | 291 | 11.3 | 24.1 | 0.00 | 0.41 | 0.00 | 67 | 1011.5 |
| 20260903182511 | 23 | 313 | 12.9 | 20.9 | 0.00 | 0.41 | 0.00 | 69 | 1011.6 |
| 20260903182008 | 24 | 297 | 11.3 | 20.9 | 0.00 | 0.41 | 0.00 | 69 | 1011.6 |
| 20260903181505 | 23 | 275 | 11.3 | 24.1 | 0.00 | 0.41 | 0.00 | 67 | 1011.5 |
| 20260903181004 | 23 | 305 | 11.3 | 24.1 | 0.00 | 0.41 | 0.00 | 65 | 1011.5 |
| 20260903180503 | 23 | 291 | 9.7 | 25.7 | 0.00 | 0.41 | 0.00 | 69 | 1011.5 |
| 20260903180002 | 23 | 315 | 12.9 | 24.1 | 0.00 | 0.41 | 0.00 | 69 | 1011.5 |
| 20260903175501 | 22 | 294 | 12.9 | 20.9 | 0.00 | 0.41 | 0.00 | 71 | 1011.7 |
| 20260903175002 | 22 | 296 | 14.5 | 25.7 | 0.00 | 0.41 | 0.00 | 74 | 1011.7 |
| 20260903174502 | 23 | 294 | 17.7 | 25.7 | 0.00 | 0.41 | 0.00 | 74 | 1011.7 |
| 20260903174002 | 23 | 308 | 16.1 | 24.1 | 0.00 | 0.41 | 0.00 | 73 | 1011.6 |
| 20260903173600 | 23 | 290 | 8.0 | 17.7 | 0.00 | 0.41 | 0.00 | 76 | 1011.6 |
| 20260903173059 | 22 | 305 | 3.2 | 17.7 | 0.00 | 0.41 | 0.00 | 79 | 1011.7 |
| 20260903172558 | 22 | 294 | 4.8 | 14.5 | 0.00 | 0.41 | 0.00 | 78 | 1011.8 |
| 20260903172057 | 22 | 313 | 6.4 | 17.7 | 0.00 | 0.41 | 0.00 | 79 | 1011.7 |
| 20260903171558 | 22 | 275 | 4.8 | 17.7 | 0.00 | 0.41 | 0.00 | 79 | 1011.8 |
| 20260903171056 | 22 | 306 | 8.0 | 17.7 | 0.00 | 0.41 | 0.00 | 79 | 1011.9 |
| 20260903170556 | 22 | 327 | 4.8 | 14.5 | 0.00 | 0.41 | 0.00 | 81 | 1011.8 |
| 20260903170056 | 22 | 288 | 6.4 | 20.9 | 0.00 | 0.41 | 0.00 | 81 | 1011.9 |
| 20260903165555 | 22 | 306 | 9.7 | 20.9 | 0.00 | 0.71 | 0.00 | 81 | 1011.8 |
| 20260903165055 | 22 | 297 | 8.0 | 17.7 | 0.00 | 0.71 | 0.00 | 82 | 1011.9 |
| 20260903164557 | 22 | 302 | 6.4 | 19.3 | 0.00 | 0.71 | 0.00 | 81 | 1011.9 |
| 20260903164052 | 22 | 302 | 9.7 | 19.3 | 0.00 | 0.71 | 0.00 | 82 | 1012.0 |
| 20260903163551 | 21 | 283 | 6.4 | 17.7 | 0.00 | 0.71 | 0.00 | 83 | 1012.0 |
| 20260903163056 | 21 | 291 | 4.8 | 16.1 | 0.00 | 0.71 | 0.00 | 84 | 1012.2 |
| 20260903162550 | 21 | 311 | 8.0 | 16.1 | 0.00 | 0.71 | 0.00 | 84 | 1012.1 |
| 20260903162051 | 21 | 284 | 4.8 | 12.9 | 0.00 | 0.71 | 0.00 | 84 | 1012.1 |
| 20260903161549 | 21 | 284 | 0.0 | 9.7 | 0.00 | 0.71 | 0.00 | 84 | 1012.0 |
| 20260903161049 | 21 | 265 | 6.4 | 12.9 | 0.00 | 0.71 | 0.00 | 84 | 1012.1 |
| 20260903160549 | 21 | 305 | 3.2 | 17.7 | 0.00 | 0.71 | 0.00 | 84 | 1012.1 |
| 20260903160052 | 21 | 310 | 3.2 | 17.7 | 0.00 | 0.71 | 0.00 | 84 | 1012.2 |
| 20260903155548 | 21 | 302 | 3.2 | 9.7 | 0.00 | 0.94 | 0.00 | 85 | 1012.3 |
| 20260903155048 | 21 | 284 | 3.2 | 12.9 | 0.00 | 0.94 | 0.00 | 85 | 1012.3 |
| 20260903154604 | 21 | 305 | 4.8 | 14.5 | 0.00 | 0.94 | 0.00 | 85 | 1012.3 |
| 20260903154048 | 21 | 307 | 4.8 | 14.5 | 0.00 | 0.94 | 0.00 | 85 | 1012.3 |
| 20260903153550 | 21 | 275 | 4.8 | 14.5 | 0.00 | 0.94 | 0.00 | 84 | 1012.4 |
| 20260903153050 | 21 | 313 | 6.4 | 12.9 | 0.00 | 0.94 | 0.00 | 84 | 1012.4 |
| 20260903152547 | 21 | 269 | 1.6 | 12.9 | 0.00 | 0.94 | 0.00 | 84 | 1012.4 |
| 20260903152047 | 21 | 250 | 1.6 | 12.9 | 0.00 | 0.94 | 0.00 | 83 | 1012.3 |
| 20260903151546 | 21 | 249 | 1.6 | 11.3 | 0.00 | 0.94 | 0.00 | 83 | 1012.4 |
| 20260903151046 | 21 | 270 | 3.2 | 11.3 | 0.00 | 0.94 | 0.00 | 83 | 1012.3 |
| 20260903150546 | 21 | 217 | 1.6 | 8.0 | 0.00 | 0.94 | 0.00 | 82 | 1012.3 |
| 20260903150046 | 21 | 201 | 0.0 | 9.7 | 0.00 | 0.94 | 0.00 | 82 | 1012.4 |
| 20260903145548 | 21 | 198 | 1.6 | 11.3 | 0.00 | 0.94 | 0.00 | 82 | 1012.3 |
| 20260903145045 | 21 | 240 | 0.0 | 11.3 | 0.00 | 0.94 | 0.00 | 82 | 1012.3 |
| 20260903144544 | 21 | 234 | 1.6 | 11.3 | 0.00 | 0.94 | 0.00 | 83 | 1012.2 |
| 20260903144046 | 21 | 221 | 0.0 | 4.8 | 0.00 | 0.94 | 0.00 | 83 | 1012.3 |
| 20260903143543 | 21 | 263 | 0.0 | 4.8 | 0.00 | 0.94 | 0.00 | 83 | 1012.3 |
| 20260903143100 | 21 | 266 | 0.0 | 4.8 | 0.00 | 0.94 | 0.00 | 83 | 1012.2 |
| 20260903142542 | 21 | 107 | 1.6 | 6.4 | 0.00 | 0.94 | 0.00 | 85 | 1012.2 |
| 20260903142041 | 21 | 177 | 1.6 | 6.4 | 0.00 | 0.94 | 0.00 | 85 | 1012.1 |
| 20260903141555 | 20 | 261 | 0.0 | 11.3 | 0.00 | 0.94 | 0.00 | 87 | 1012.2 |
| 20260903141038 | 20 | 230 | 1.6 | 11.3 | 0.00 | 0.94 | 0.00 | 87 | 1012.2 |
| 20260903140537 | 20 | 164 | 1.6 | 11.3 | 0.00 | 0.94 | 0.00 | 88 | 1012.0 |
| 20260903140039 | 20 | 206 | 3.2 | 8.0 | 0.00 | 0.94 | 0.00 | 88 | 1012.0 |
| 20260903135536 | 20 | 262 | 1.6 | 11.3 | 0.00 | 0.94 | 0.00 | 88 | 1012.1 |
| 20260903135037 | 20 | 228 | 3.2 | 11.3 | 0.00 | 0.94 | 0.00 | 88 | 1012.1 |
| 20260903134537 | 20 | 244 | 1.6 | 6.4 | 0.00 | 0.94 | 0.00 | 88 | 1012.0 |
| 20260903134035 | 20 | 207 | 0.0 | 6.4 | 0.00 | 0.94 | 0.00 | 88 | 1012.0 |
| 20260903133534 | 20 | 289 | 0.0 | 4.8 | 0.00 | 0.94 | 0.00 | 89 | 1012.1 |
| 20260903133035 | 20 | 273 | 0.0 | 6.4 | 0.00 | 0.94 | 0.00 | 89 | 1012.1 |
| 20260903132533 | 19 | 271 | 1.6 | 6.4 | 0.00 | 0.94 | 0.00 | 89 | 1012.1 |
| 20260903132033 | 19 | 333 | 0.0 | 8.0 | 0.00 | 0.94 | 0.00 | 89 | 1012.1 |
| 20260903131534 | 19 | 226 | 3.2 | 8.0 | 0.00 | 0.94 | 0.00 | 90 | 1012.1 |
| 20260903131033 | 19 | 254 | 1.6 | 12.9 | 0.00 | 0.94 | 0.00 | 90 | 1012.1 |
| 20260903130533 | 19 | 211 | 1.6 | 12.9 | 0.00 | 0.94 | 0.00 | 90 | 1012.2 |
| 20260903130036 | 19 | 191 | 4.8 | 8.0 | 0.00 | 0.94 | 0.00 | 90 | 1012.1 |
| 20260903125532 | 18 | 222 | 3.2 | 8.0 | 0.00 | 0.94 | 0.00 | 90 | 1012.2 |
| 20260903125031 | 18 | 188 | 3.2 | 9.7 | 0.00 | 0.94 | 0.00 | 90 | 1012.1 |
| 20260903124531 | 18 | 180 | 4.8 | 11.3 | 0.00 | 0.94 | 0.00 | 90 | 1011.9 |
| 20260903124031 | 18 | 190 | 3.2 | 6.4 | 0.00 | 0.94 | 0.00 | 90 | 1012.1 |
| 20260903123531 | 18 | 179 | 1.6 | 8.0 | 0.00 | 0.94 | 0.00 | 90 | 1012.2 |
| 20260903123034 | 18 | 193 | 3.2 | 8.0 | 0.00 | 0.94 | 0.00 | 90 | 1012.2 |
| 20260903122530 | 18 | 182 | 1.6 | 12.9 | 0.00 | 0.94 | 0.00 | 90 | 1012.2 |
| 20260903122030 | 18 | 189 | 1.6 | 12.9 | 0.00 | 0.94 | 0.00 | 90 | 1012.3 |
| 20260903121530 | 18 | 220 | 3.2 | 11.3 | 0.00 | 0.94 | 0.00 | 90 | 1012.2 |
| 20260903121029 | 18 | 205 | 3.2 | 9.7 | 0.00 | 0.94 | 0.00 | 90 | 1012.2 |
| 20260903120529 | 18 | 202 | 3.2 | 11.3 | 0.00 | 0.94 | 0.00 | 90 | 1012.2 |
| 20260903120029 | 18 | 211 | 4.8 | 11.3 | 0.00 | 0.94 | 0.00 | 90 | 1012.0 |
| 20260903115528 | 18 | 196 | 1.6 | 9.7 | 0.00 | 0.94 | 0.00 | 90 | 1012.0 |
| 20260903115028 | 18 | 196 | 6.4 | 14.5 | 0.00 | 0.94 | 0.00 | 90 | 1011.9 |
| 20260903114528 | 18 | 220 | 8.0 | 14.5 | 0.00 | 0.94 | 0.00 | 90 | 1011.9 |
| 20260903114028 | 18 | 206 | 6.4 | 14.5 | 0.00 | 0.94 | 0.00 | 90 | 1011.8 |
| 20260903113528 | 18 | 204 | 6.4 | 14.5 | 0.00 | 0.94 | 0.00 | 90 | 1011.9 |
| 20260903113030 | 18 | 219 | 1.6 | 9.7 | 0.00 | 0.94 | 0.00 | 90 | 1011.9 |
| 20260903112527 | 18 | 215 | 1.6 | 16.1 | 0.00 | 0.94 | 0.00 | 90 | 1011.9 |
| 20260903112032 | 18 | 200 | 4.8 | 16.1 | 0.00 | 0.94 | 0.00 | 90 | 1011.9 |
| 20260903111535 | 18 | 175 | 3.2 | 16.1 | 0.00 | 0.94 | 0.00 | 89 | 1012.0 |
| 20260903111026 | 18 | 198 | 6.4 | 14.5 | 0.00 | 0.94 | 0.00 | 89 | 1012.0 |
| 20260903110526 | 18 | 194 | 3.2 | 16.1 | 0.00 | 0.94 | 0.00 | 89 | 1012.0 |
| 20260903110025 | 18 | 215 | 8.0 | 17.7 | 0.00 | 0.94 | 0.00 | 89 | 1011.9 |
| 20260903105525 | 18 | 216 | 6.4 | 25.7 | 0.00 | 0.94 | 0.00 | 89 | 1011.9 |
| 20260903105025 | 18 | 249 | 4.8 | 25.7 | 0.00 | 0.94 | 0.00 | 89 | 1011.9 |
| 20260903104525 | 18 | 208 | 6.4 | 16.1 | 0.00 | 0.94 | 0.00 | 89 | 1011.9 |
| 20260903104025 | 18 | 201 | 4.8 | 16.1 | 0.00 | 0.94 | 0.00 | 88 | 1012.0 |
| 20260903103524 | 18 | 207 | 4.8 | 14.5 | 0.00 | 0.94 | 0.00 | 88 | 1012.0 |
| 20260903103027 | 18 | 209 | 4.8 | 17.7 | 0.00 | 0.94 | 0.00 | 88 | 1012.1 |
| 20260903102524 | 18 | 223 | 4.8 | 17.7 | 0.00 | 0.94 | 0.00 | 88 | 1012.0 |
| 20260903102022 | 18 | 205 | 3.2 | 9.7 | 0.00 | 0.94 | 0.00 | 88 | 1012.1 |
| 20260903101535 | 18 | 160 | 1.6 | 14.5 | 0.00 | 0.94 | 0.00 | 88 | 1011.9 |
| 20260903101022 | 18 | 288 | 3.2 | 14.5 | 0.00 | 0.94 | 0.00 | 88 | 1011.9 |
| 20260903100522 | 18 | 236 | 0.0 | 12.9 | 0.00 | 0.94 | 0.00 | 88 | 1011.8 |
| 20260903100021 | 18 | 188 | 3.2 | 12.9 | 0.00 | 0.94 | 0.00 | 89 | 1011.8 |
| 20260903095521 | 18 | 225 | 3.2 | 16.1 | 0.00 | 0.94 | 0.00 | 89 | 1011.8 |
| 20260903095120 | 18 | 207 | 4.8 | 16.1 | 0.00 | 0.94 | 0.00 | 89 | 1011.8 |
| 20260903094519 | 18 | 208 | 3.2 | 11.3 | 0.00 | 0.94 | 0.00 | 90 | 1011.7 |
| 20260903094017 | 18 | 250 | 1.6 | 9.7 | 0.00 | 0.94 | 0.00 | 90 | 1011.7 |
| 20260903093516 | 18 | 40 | 3.2 | 9.7 | 0.00 | 0.94 | 0.00 | 90 | 1011.7 |
| 20260903093015 | 18 | 174 | 3.2 | 9.7 | 0.00 | 0.94 | 0.00 | 90 | 1011.6 |
| 20260903092517 | 18 | 175 | 1.6 | 9.7 | 0.00 | 0.94 | 0.00 | 90 | 1011.7 |
| 20260903092014 | 18 | 192 | 0.0 | 9.7 | 0.00 | 0.94 | 0.00 | 90 | 1011.6 |
| 20260903091515 | 18 | 149 | 1.6 | 11.3 | 0.00 | 0.94 | 0.00 | 90 | 1011.7 |
| 20260903091012 | 18 | 206 | 1.6 | 11.3 | 0.00 | 0.94 | 0.00 | 90 | 1011.6 |
| 20260903090512 | 18 | 192 | 4.8 | 11.3 | 0.00 | 0.94 | 0.00 | 90 | 1011.5 |
| 20260903090011 | 18 | 213 | 3.2 | 11.3 | 0.00 | 0.94 | 0.00 | 90 | 1011.6 |
| 20260903085508 | 18 | 46 | 0.0 | 8.0 | 0.00 | 0.94 | 0.00 | 90 | 1011.7 |
| 20260903085007 | 18 | 228 | 1.6 | 12.9 | 0.00 | 0.94 | 0.00 | 90 | 1011.7 |
| 20260903084506 | 18 | 258 | 0.0 | 12.9 | 0.00 | 0.94 | 0.00 | 91 | 1011.7 |
| 20260903084005 | 18 | 210 | 1.6 | 12.9 | 0.00 | 0.94 | 0.00 | 91 | 1011.7 |
| 20260903083504 | 18 | 209 | 4.8 | 12.9 | 0.00 | 0.94 | 0.00 | 91 | 1011.7 |
| 20260903083002 | 18 | 211 | 3.2 | 11.3 | 0.00 | 0.94 | 0.00 | 91 | 1011.7 |
| 20260903082500 | 18 | 247 | 4.8 | 11.3 | 0.00 | 0.94 | 0.00 | 91 | 1011.8 |
| 20260903082100 | 18 | 207 | 6.4 | 12.9 | 0.00 | 0.94 | 0.00 | 91 | 1011.8 |
| 20260903081600 | 18 | 238 | 6.4 | 17.7 | 0.00 | 0.94 | 0.00 | 91 | 1011.8 |
| 20260903081100 | 18 | 247 | 4.8 | 17.7 | 0.00 | 0.94 | 0.00 | 91 | 1011.8 |
| 20260903080553 | 18 | 155 | 3.2 | 11.3 | 0.00 | 0.94 | 0.00 | 91 | 1011.8 |
| 20260903080054 | 18 | 222 | 3.2 | 9.7 | 0.00 | 0.94 | 0.00 | 91 | 1011.9 |
| 20260903075558 | 18 | 197 | 3.2 | 9.7 | 0.00 | 0.94 | 0.00 | 92 | 1011.9 |
| 20260903075053 | 18 | 188 | 3.2 | 9.7 | 0.00 | 0.94 | 0.00 | 92 | 1011.9 |
| 20260903074553 | 18 | 308 | 3.2 | 11.3 | 0.00 | 0.94 | 0.00 | 92 | 1011.9 |
| 20260903074054 | 18 | 258 | 3.2 | 11.3 | 0.00 | 0.94 | 0.00 | 92 | 1011.9 |
| 20260903073553 | 18 | 196 | 1.6 | 8.0 | 0.00 | 0.94 | 0.00 | 92 | 1012.0 |
| 20260903073055 | 18 | 190 | 1.6 | 8.0 | 0.00 | 0.94 | 0.00 | 92 | 1012.0 |
| 20260903072552 | 18 | 36 | 1.6 | 8.0 | 0.00 | 0.94 | 0.00 | 92 | 1012.0 |
| 20260903072052 | 18 | 224 | 1.6 | 8.0 | 0.00 | 0.94 | 0.00 | 92 | 1012.0 |
| 20260903071552 | 18 | 317 | 0.0 | 11.3 | 0.00 | 0.94 | 0.00 | 92 | 1012.0 |
| 20260903071051 | 18 | 231 | 3.2 | 12.9 | 0.00 | 0.94 | 0.00 | 92 | 1012.0 |
| 20260903070550 | 18 | 193 | 0.0 | 12.9 | 0.00 | 0.94 | 0.00 | 91 | 1012.1 |
| 20260903070055 | 18 | 219 | 1.6 | 11.3 | 0.00 | 0.94 | 0.00 | 91 | 1012.0 |
| 20260903065551 | 18 | 194 | 3.2 | 11.3 | 0.00 | 0.94 | 0.00 | 92 | 1012.1 |
| 20260903065050 | 18 | 234 | 1.6 | 12.9 | 0.00 | 0.94 | 0.00 | 91 | 1012.1 |
| 20260903064550 | 18 | 187 | 1.6 | 14.5 | 0.00 | 0.94 | 0.00 | 92 | 1012.1 |
| 20260903064051 | 18 | 161 | 4.8 | 14.5 | 0.00 | 0.94 | 0.00 | 92 | 1012.0 |
| 20260903063549 | 18 | 213 | 3.2 | 14.5 | 0.00 | 0.94 | 0.00 | 92 | 1012.0 |
| 20260903063112 | 18 | 221 | 4.8 | 16.1 | 0.00 | 0.94 | 0.00 | 92 | 1012.0 |
| 20260903062546 | 18 | 207 | 8.0 | 16.1 | 0.00 | 0.94 | 0.00 | 92 | 1011.8 |
| 20260903062046 | 18 | 156 | 4.8 | 11.3 | 0.00 | 0.94 | 0.00 | 92 | 1011.9 |
| 20260903061546 | 18 | 206 | 1.6 | 11.3 | 0.00 | 0.94 | 0.00 | 92 | 1011.9 |
| 20260903061045 | 18 | 192 | 3.2 | 11.3 | 0.00 | 0.94 | 0.00 | 92 | 1011.9 |
| 20260903060545 | 18 | 227 | 3.2 | 11.3 | 0.00 | 0.94 | 0.00 | 92 | 1012.0 |
| 20260903060045 | 18 | 200 | 4.8 | 16.1 | 0.00 | 0.94 | 0.00 | 92 | 1011.9 |
| 20260903055545 | 18 | 10 | 3.2 | 19.3 | 0.00 | 0.94 | 0.00 | 92 | 1011.9 |
| 20260903055044 | 18 | 215 | 3.2 | 17.7 | 0.00 | 0.94 | 0.00 | 91 | 1011.8 |
| 20260903054545 | 18 | 142 | 1.6 | 12.9 | 0.00 | 0.94 | 0.00 | 92 | 1011.7 |
| 20260903054044 | 18 | 192 | 1.6 | 16.1 | 0.00 | 0.94 | 0.00 | 91 | 1011.7 |
| 20260903053546 | 18 | 209 | 4.8 | 22.5 | 0.00 | 0.94 | 0.00 | 92 | 1011.7 |
| 20260903053043 | 18 | 186 | 9.7 | 22.5 | 0.00 | 0.94 | 0.00 | 92 | 1011.8 |
| 20260903052543 | 18 | 200 | 6.4 | 20.9 | 0.00 | 0.94 | 0.00 | 92 | 1011.7 |
| 20260903052043 | 18 | 204 | 4.8 | 24.1 | 0.00 | 0.94 | 0.00 | 91 | 1011.6 |
| 20260903051545 | 18 | 202 | 6.4 | 24.1 | 0.00 | 0.94 | 0.00 | 91 | 1011.6 |
| 20260903051041 | 18 | 183 | 9.7 | 19.3 | 0.00 | 0.94 | 0.00 | 91 | 1011.5 |
| 20260903050540 | 18 | 198 | 6.4 | 22.5 | 0.00 | 0.94 | 0.00 | 91 | 1011.7 |
| 20260903050100 | 18 | 236 | 8.0 | 24.1 | 0.00 | 0.94 | 0.00 | 91 | 1011.9 |
| 20260903045540 | 18 | 252 | 8.0 | 20.9 | 0.00 | 0.94 | 0.00 | 91 | 1012.0 |
| 20260903045039 | 18 | 159 | 8.0 | 20.9 | 0.00 | 0.94 | 0.00 | 91 | 1012.1 |
| 20260903044539 | 18 | 192 | 9.7 | 22.5 | 0.00 | 0.94 | 0.00 | 92 | 1012.2 |
| 20260903044038 | 18 | 190 | 8.0 | 22.5 | 0.00 | 0.94 | 0.00 | 92 | 1012.2 |
| 20260903043539 | 17 | 218 | 6.4 | 22.5 | 0.00 | 0.94 | 0.00 | 92 | 1012.4 |
| 20260903043037 | 17 | 209 | 6.4 | 22.5 | 0.00 | 0.94 | 0.00 | 92 | 1012.4 |
| 20260903042537 | 17 | 203 | 8.0 | 22.5 | 0.03 | 0.94 | 0.00 | 92 | 1012.5 |
| 20260903042036 | 17 | 238 | 9.7 | 24.1 | 0.03 | 0.94 | 0.00 | 92 | 1012.7 |
| 20260903041535 | 17 | 234 | 9.7 | 24.1 | 0.03 | 0.94 | 0.00 | 92 | 1012.6 |
| 20260903041033 | 17 | 207 | 8.0 | 24.1 | 0.05 | 0.94 | 0.00 | 92 | 1012.5 |
| 20260903040532 | 17 | 194 | 1.6 | 14.5 | 0.05 | 0.94 | 0.00 | 91 | 1012.1 |
| 20260903040032 | 17 | 156 | 6.4 | 14.5 | 0.10 | 0.94 | 0.00 | 91 | 1011.8 |
| 20260903035530 | 17 | 150 | 3.2 | 19.3 | 0.10 | 0.94 | 0.94 | 91 | 1011.8 |
| 20260903035030 | 17 | 186 | 9.7 | 24.1 | 0.15 | 0.94 | 0.94 | 91 | 1011.8 |
| 20260903034531 | 17 | 196 | 6.4 | 24.1 | 0.15 | 0.94 | 0.94 | 91 | 1011.9 |
| 20260903034029 | 17 | 220 | 12.9 | 24.1 | 0.18 | 0.94 | 0.94 | 91 | 1012.2 |
| 20260903033533 | 18 | 187 | 8.0 | 30.6 | 0.20 | 0.94 | 0.94 | 91 | 1012.4 |
| 20260903033030 | 18 | 198 | 14.5 | 30.6 | 0.20 | 0.94 | 0.94 | 91 | 1012.4 |
| 20260903032528 | 18 | 208 | 9.7 | 16.1 | 0.20 | 0.91 | 0.91 | 91 | 1012.5 |
| 20260903032027 | 18 | 192 | 4.8 | 16.1 | 0.20 | 0.91 | 0.91 | 91 | 1012.9 |
| 20260903031528 | 18 | 150 | 6.4 | 27.4 | 0.23 | 0.91 | 0.91 | 91 | 1012.7 |
| 20260903031028 | 18 | 179 | 16.1 | 27.4 | 0.23 | 0.89 | 0.89 | 91 | 1012.2 |
| 20260903030527 | 18 | 183 | 12.9 | 37.0 | 0.23 | 0.86 | 0.86 | 91 | 1012.2 |
| 20260903030029 | 18 | 142 | 14.5 | 37.0 | 0.20 | 0.84 | 0.84 | 91 | 1012.2 |
| 20260903025526 | 18 | 175 | 4.8 | 27.4 | 0.23 | 0.84 | 0.84 | 91 | 1012.8 |
| 20260903025026 | 18 | 122 | 6.4 | 27.4 | 0.18 | 0.79 | 0.79 | 91 | 1012.7 |
| 20260903024526 | 18 | 149 | 11.3 | 25.7 | 0.20 | 0.79 | 0.79 | 91 | 1012.9 |
| 20260903024025 | 18 | 196 | 9.7 | 24.1 | 0.20 | 0.76 | 0.76 | 91 | 1013.1 |
| 20260903023525 | 18 | 213 | 11.3 | 25.7 | 0.18 | 0.71 | 0.71 | 91 | 1013.0 |
| 20260903023027 | 18 | 186 | 11.3 | 25.7 | 0.20 | 0.71 | 0.71 | 91 | 1013.1 |
| 20260903022526 | 18 | 192 | 6.4 | 14.5 | 0.18 | 0.71 | 0.71 | 91 | 1013.1 |
| 20260903022025 | 18 | 136 | 8.0 | 16.1 | 0.18 | 0.71 | 0.71 | 91 | 1013.0 |
| 20260903021529 | 18 | 170 | 4.8 | 17.7 | 0.15 | 0.69 | 0.69 | 91 | 1013.1 |
| 20260903021025 | 18 | 191 | 3.2 | 16.1 | 0.13 | 0.66 | 0.66 | 91 | 1013.2 |
| 20260903020525 | 18 | 182 | 4.8 | 16.1 | 0.10 | 0.64 | 0.64 | 90 | 1013.4 |
| 20260903020024 | 18 | 192 | 6.4 | 16.1 | 0.10 | 0.64 | 0.64 | 90 | 1013.3 |
| 20260903015524 | 18 | 186 | 8.0 | 14.5 | 0.08 | 0.61 | 0.61 | 90 | 1013.4 |
| 20260903015023 | 18 | 174 | 4.8 | 17.7 | 0.08 | 0.61 | 0.61 | 89 | 1013.6 |
| 20260903014523 | 18 | 140 | 8.0 | 17.7 | 0.05 | 0.58 | 0.58 | 89 | 1013.7 |
| 20260903014023 | 18 | 173 | 6.4 | 16.1 | 0.03 | 0.56 | 0.56 | 88 | 1014.0 |
| 20260903013522 | 18 | 194 | 6.4 | 16.1 | 0.03 | 0.56 | 0.56 | 87 | 1014.2 |
| 20260903013022 | 18 | 161 | 6.4 | 16.1 | 0.00 | 0.53 | 0.53 | 87 | 1014.3 |
| 20260903012525 | 19 | 200 | 6.4 | 12.9 | 0.00 | 0.53 | 0.53 | 87 | 1014.5 |
| 20260903012025 | 19 | 207 | 6.4 | 12.9 | 0.00 | 0.53 | 0.53 | 87 | 1014.9 |
| 20260903011522 | 19 | 165 | 4.8 | 14.5 | 0.00 | 0.53 | 0.53 | 87 | 1014.5 |
| 20260903011024 | 19 | 175 | 4.8 | 17.7 | 0.00 | 0.53 | 0.53 | 87 | 1014.4 |
| 20260903010521 | 19 | 195 | 6.4 | 17.7 | 0.00 | 0.53 | 0.53 | 87 | 1014.0 |
| 20260903010028 | 19 | 205 | 9.7 | 17.7 | 0.00 | 0.53 | 0.53 | 87 | 1014.0 |
| 20260903005522 | 19 | 194 | 6.4 | 17.7 | 0.00 | 0.53 | 0.53 | 86 | 1014.1 |
| 20260903005020 | 19 | 146 | 6.4 | 16.1 | 0.00 | 0.53 | 0.53 | 87 | 1014.2 |
| 20260903004521 | 19 | 164 | 6.4 | 20.9 | 0.00 | 0.53 | 0.53 | 86 | 1014.1 |
| 20260903004023 | 19 | 197 | 9.7 | 20.9 | 0.00 | 0.53 | 0.53 | 86 | 1014.2 |
| 20260903003520 | 19 | 121 | 6.4 | 16.1 | 0.00 | 0.53 | 0.53 | 86 | 1013.9 |
| 20260903003021 | 19 | 154 | 4.8 | 17.7 | 0.00 | 0.53 | 0.53 | 86 | 1013.9 |
| 20260903002520 | 19 | 171 | 11.3 | 19.3 | 0.00 | 0.53 | 0.53 | 86 | 1013.9 |
| 20260903002020 | 19 | 221 | 4.8 | 16.1 | 0.00 | 0.53 | 0.53 | 86 | 1014.1 |
| 20260903001520 | 19 | 195 | 8.0 | 16.1 | 0.00 | 0.53 | 0.53 | 86 | 1014.1 |
| 20260903001018 | 19 | 72 | 4.8 | 12.9 | 0.00 | 0.53 | 0.53 | 86 | 1013.8 |
| 20260903000518 | 19 | 199 | 4.8 | 20.9 | 0.00 | 0.53 | 0.53 | 86 | 1013.6 |
| 20260903000020 | 19 | 205 | 8.0 | 24.1 | 0.00 | 0.53 | 0.53 | 86 | 1013.5 |
| 20260902235518 | 20 | 181 | 6.4 | 17.7 | 0.00 | 0.53 | 0.53 | 86 | 1013.4 |
| 20260902235017 | 20 | 175 | 4.8 | 16.1 | 0.00 | 0.53 | 0.53 | 86 | 1013.6 |
| 20260902234519 | 20 | 196 | 6.4 | 16.1 | 0.00 | 0.53 | 0.53 | 86 | 1013.7 |
| 20260902234018 | 20 | 130 | 8.0 | 20.9 | 0.00 | 0.53 | 0.53 | 85 | 1013.5 |
| 20260902233520 | 20 | 200 | 11.3 | 20.9 | 0.00 | 0.53 | 0.53 | 85 | 1013.5 |
| 20260902233018 | 20 | 121 | 9.7 | 20.9 | 0.00 | 0.53 | 0.53 | 85 | 1013.4 |
| 20260902232517 | 20 | 202 | 11.3 | 20.9 | 0.00 | 0.53 | 0.53 | 85 | 1013.3 |
| 20260902232120 | 20 | 215 | 9.7 | 29.0 | 0.00 | 0.53 | 0.53 | 85 | 1013.2 |
| 20260902231534 | 20 | 166 | 6.4 | 22.5 | 0.00 | 0.53 | 0.53 | 86 | 1012.7 |
| 20260902231018 | 20 | 170 | 8.0 | 22.5 | 0.00 | 0.53 | 0.53 | 86 | 1012.6 |
| 20260902230516 | 20 | 180 | 6.4 | 29.0 | 0.00 | 0.53 | 0.53 | 86 | 1012.7 |
| 20260902230027 | 20 | 161 | 14.5 | 29.0 | 0.00 | 0.53 | 0.53 | 85 | 1012.5 |
| 20260902225516 | 20 | 146 | 11.3 | 25.7 | 0.00 | 0.53 | 0.53 | 86 | 1012.6 |
| 20260902225017 | 20 | 118 | 11.3 | 24.1 | 0.00 | 0.53 | 0.53 | 86 | 1012.7 |
| 20260902224514 | 20 | 146 | 8.0 | 17.7 | 0.00 | 0.53 | 0.53 | 86 | 1013.3 |
| 20260902224016 | 20 | 129 | 6.4 | 12.9 | 0.00 | 0.53 | 0.53 | 86 | 1013.5 |
| 20260902223511 | 20 | 142 | 4.8 | 14.5 | 0.00 | 0.53 | 0.53 | 86 | 1013.7 |
| 20260902223011 | 20 | 142 | 4.8 | 14.5 | 0.00 | 0.53 | 0.53 | 86 | 1014.0 |
| 20260902222510 | 20 | 134 | 4.8 | 11.3 | 0.00 | 0.53 | 0.53 | 85 | 1014.2 |
| 20260902222011 | 21 | 136 | 1.6 | 9.7 | 0.00 | 0.53 | 0.53 | 85 | 1014.4 |
| 20260902221517 | 21 | 155 | 3.2 | 8.0 | 0.00 | 0.53 | 0.53 | 85 | 1014.3 |
| 20260902221009 | 21 | 157 | 0.0 | 9.7 | 0.00 | 0.53 | 0.53 | 85 | 1014.7 |
| 20260902220508 | 21 | 193 | 1.6 | 9.7 | 0.00 | 0.53 | 0.53 | 84 | 1014.6 |
| 20260902220009 | 21 | 169 | 3.2 | 11.3 | 0.00 | 0.53 | 0.53 | 84 | 1014.8 |
| 20260902215510 | 21 | 160 | 3.2 | 12.9 | 0.00 | 0.53 | 0.53 | 84 | 1014.8 |
| 20260902215007 | 21 | 146 | 3.2 | 12.9 | 0.00 | 0.53 | 0.53 | 84 | 1014.8 |
| 20260902214508 | 21 | 144 | 1.6 | 11.3 | 0.00 | 0.53 | 0.53 | 84 | 1014.8 |
| 20260902214008 | 21 | 178 | 3.2 | 11.3 | 0.00 | 0.53 | 0.53 | 83 | 1014.8 |
| 20260902213507 | 21 | 192 | 1.6 | 11.3 | 0.00 | 0.53 | 0.53 | 83 | 1014.8 |
| 20260902213007 | 21 | 163 | 3.2 | 12.9 | 0.00 | 0.53 | 0.53 | 82 | 1014.8 |
| 20260902212507 | 21 | 179 | 4.8 | 12.9 | 0.00 | 0.53 | 0.53 | 82 | 1014.8 |
| 20260902212008 | 21 | 162 | 6.4 | 19.3 | 0.00 | 0.53 | 0.53 | 81 | 1014.9 |
| 20260902211508 | 21 | 189 | 12.9 | 19.3 | 0.00 | 0.53 | 0.53 | 81 | 1014.9 |
| 20260902211009 | 22 | 199 | 1.6 | 11.3 | 0.00 | 0.53 | 0.53 | 82 | 1014.9 |
| 20260902210507 | 22 | 180 | 3.2 | 11.3 | 0.00 | 0.53 | 0.53 | 82 | 1014.9 |
| 20260902210006 | 21 | 179 | 4.8 | 14.5 | 0.00 | 0.53 | 0.53 | 82 | 1014.8 |